Wind_Speed
15 15 16 17 17 18 18 17 17 17 17 16 16 16 16 15 14 13 13 13 12 13 14 14 14 13 13 13 13 13 13 13 13 13 12 12 12 12 11 11 11 11 10 10
15 15 15 16 17 17 17 17 17 18 17 16 16 16 16 15 14 14 14 14 14 14 15 15 15 14 14 14 14 13 13 14 14 13 13 12 12 11 11 11 11 11 11 11
14 15 15 16 16 16 16 17 18 18 17 17 17 16 16 16 15 14 14 14 14 15 15 16 15 15 15 15 15 15 15 15 15 14 14 13 13 12 12 12 12 12 11 10
15 15 15 15 15 16 16 17 18 18 17 17 17 15 16 16 15 15 15 15 15 15 15 15 16 15 15 15 16 16 17 17 16 15 15 14 14 13 12 11 11 11 10 9
15 15 15 15 15 15 16 16 17 17 17 16 16 15 15 16 16 16 16 16 15 16 16 16 15 15 15 16 16 17 17 18 17 16 16 15 14 13 12 11 11 11 11 11
15 16 16 16 15 15 16 16 16 16 15 15 16 15 15 16 17 16 17 16 16 16 17 16 16 16 16 16 16 17 17 18 18 18 17 17 15 14 13 13 12 12 12 12
15 16 16 16 15 15 15 14 14 14 15 15 16 16 16 17 17 17 17 17 17 16 16 16 16 16 16 17 17 18 18 19 18 18 19 18 17 15 15 15 14 13 13 12
14 14 15 16 16 16 16 15 15 14 14 15 18 17 16 16 17 17 17 17 16 16 16 16 16 16 17 18 18 19 20 19 19 18 18 18 18 17 17 16 15 15 15 14
14 14 15 15 15 15 15 16 17 16 16 16 16 18 17 17 17 18 18 18 17 17 17 17 17 17 18 19 20 20 20 19 20 19 19 18 18 18 17 17 17 16 16 15
15 15 15 15 15 16 16 16 17 16 16 16 17 17 17 17 18 18 19 18 18 18 18 18 19 19 20 21 21 20 20 20 20 20 19 19 19 19 19 19 19 18 17 17
15 15 15 15 15 15 15 16 17 16 17 16 16 16 17 18 18 19 19 19 18 18 18 19 20 20 21 22 22 21 20 20 20 20 19 19 20 20 20 20 21 20 19 19
15 15 16 16 17 16 16 16 17 17 18 18 16 17 18 19 19 19 19 19 19 19 19 19 20 20 21 22 21 21 20 20 20 20 19 20 20 21 20 20 20 20 20 20
15 16 16 16 17 18 19 18 18 18 18 18 16 17 18 18 19 19 20 20 20 20 20 20 20 21 21 21 21 21 20 21 21 20 21 21 21 21 21 21 20 19 19 20
16 16 16 15 16 18 19 19 19 18 18 18 18 18 20 19 19 20 21 21 21 21 21 21 21 22 21 21 21 21 21 20 21 21 21 21 21 20 19 19 20 20 20 20
17 17 17 18 19 19 19 20 20 20 20 20 20 20 21 20 20 20 21 21 21 22 22 22 22 22 22 22 22 22 21 21 21 21 21 21 21 20 19 19 19 19 20 21
18 18 18 19 20 20 20 20 21 21 21 21 21 22 21 21 21 21 21 21 21 22 22 22 22 21 21 21 21 21 21 21 21 20 20 21 21 20 19 19 20 20 20 20
19 19 18 18 19 20 21 20 21 21 20 21 22 22 22 21 21 21 21 22 22 21 22 22 21 22 22 22 22 21 21 21 20 20 20 21 21 20 20 20 20 20 20 20
20 20 20 19 20 21 21 21 21 22 21 21 22 23 22 21 22 22 22 22 21 21 21 21 21 22 22 22 23 22 21 21 21 21 21 21 21 21 20 20 21 20 20 20
21 21 21 21 21 22 22 22 22 22 23 23 23 23 22 22 21 22 21 21 21 20 20 21 22 22 22 22 22 22 21 21 22 22 21 21 21 21 21 21 20 20 20 20
22 22 22 22 22 23 24 23 22 23 24 24 23 23 22 22 22 22 21 21 21 21 21 22 22 22 22 22 23 23 23 23 22 22 22 22 22 22 22 21 21 20 20 20
23 23 23 23 24 25 25 23 23 23 23 23 23 22 22 23 23 22 22 22 22 22 22 22 22 22 22 22 22 22 22 22 22 22 22 21 20 21 21 21 21 20 20 20
23 23 23 23 24 25 24 23 23 23 23 23 23 23 23 23 23 23 23 23 23 23 23 23 23 22 22 22 23 22 22 22 21 21 20 20 20 20 20 20 20 20 20 21
22 22 23 23 23 24 23 23 23 23 23 23 23 23 23 24 23 23 23 23 23 23 23 23 22 21 21 21 22 22 22 22 21 21 21 20 20 20 20 20 21 21 21 22
22 22 22 22 22 22 22 22 22 22 23 23 23 23 23 23 23 23 23 23 23 23 22 22 22 21 22 21 21 21 22 22 22 21 21 21 21 21 21 20 21 20 20 20
22 21 21 21 21 21 21 21 21 21 22 22 22 23 23 23 23 23 23 23 23 23 23 22 22 22 22 22 21 21 21 21 21 21 22 22 21 21 21 20 20 19 20 20
21 21 21 21 21 21 21 21 22 22 22 22 22 22 23 23 23 23 23 23 23 23 23 23 23 22 22 21 21 20 21 21 21 21 21 21 21 20 20 19 19 19 20 20
Wind_Direction
230 231 233 234 233 235 237 238 242 246 252 254 256 258 260 263 266 270 273 279 284 287 291 294 292 295 297 297 298 298 300 298 299 300 295 287 287 288 286 292 284 281 280 278
231 233 233 233 234 236 237 239 242 248 253 253 256 257 258 261 264 268 271 275 280 284 288 290 290 292 294 294 295 295 295 296 294 294 290 282 282 285 287 287 283 282 280 289
231 235 234 235 236 237 237 239 243 248 253 255 255 258 261 261 263 265 269 273 277 284 287 288 290 292 291 290 290 291 294 295 288 288 286 281 282 280 281 282 281 281 281 289
230 233 234 235 235 235 240 243 245 249 252 255 254 256 263 262 264 267 270 273 278 283 286 286 288 289 288 288 289 289 292 293 288 287 289 285 279 278 282 279 281 280 278 282
234 235 235 235 236 236 239 244 246 248 248 251 255 256 262 263 265 270 271 273 277 283 284 284 285 286 285 286 289 290 290 291 289 287 285 285 280 276 278 281 281 279 277 279
237 238 234 234 237 238 240 243 246 248 251 252 253 256 261 268 269 270 272 274 278 281 281 281 281 284 286 287 290 292 292 290 287 285 282 280 278 276 277 276 280 281 280 275
241 242 239 239 240 240 241 242 248 253 255 256 258 261 262 264 265 266 271 274 278 281 282 281 281 283 286 289 291 290 291 290 286 284 280 278 275 275 277 278 280 282 281 276
241 244 242 242 241 243 243 240 240 245 252 258 264 263 263 264 264 264 268 273 278 281 282 282 281 283 287 291 292 293 293 291 286 285 282 278 276 276 276 277 278 277 277 276
239 242 243 242 243 245 245 243 243 248 252 256 262 264 264 264 264 266 268 272 277 279 279 280 281 284 287 290 291 292 293 292 290 287 282 278 279 277 274 272 272 273 273 272
240 244 247 246 247 249 248 250 249 248 253 258 264 268 267 266 264 266 269 271 274 276 277 279 280 282 285 287 288 291 293 291 290 288 285 281 280 277 272 271 270 268 269 269
243 245 248 249 248 250 252 253 253 252 252 257 264 266 264 266 267 268 270 272 274 276 278 278 280 281 284 286 288 290 291 291 288 286 281 281 281 278 275 269 267 265 267 267
245 244 247 251 250 249 251 254 256 257 260 261 263 268 268 268 267 267 269 272 275 276 277 278 279 282 284 286 288 290 290 289 289 285 283 282 282 279 273 272 269 265 265 265
249 247 251 255 255 252 251 253 255 258 263 264 263 270 270 269 268 267 269 272 275 276 276 277 277 281 284 286 287 290 290 288 287 285 285 285 285 281 275 272 268 266 265 265
253 252 250 254 258 259 258 257 258 260 263 266 263 267 270 271 271 269 270 272 273 276 277 278 280 281 283 284 285 286 287 287 286 287 286 287 287 284 278 272 266 264 264 265
255 254 255 253 254 257 258 260 262 263 263 264 266 268 272 271 271 271 271 272 273 275 276 277 279 282 282 281 282 283 285 285 286 286 286 287 288 285 280 276 271 268 265 263
255 255 257 257 256 258 258 259 261 265 264 264 266 269 272 272 272 273 274 274 275 276 276 277 279 281 280 280 280 282 283 286 287 287 285 286 287 283 280 277 273 270 267 265
256 257 261 264 261 261 261 261 262 266 267 267 268 270 272 272 273 274 275 275 275 274 274 275 277 278 278 278 279 281 283 284 285 285 284 285 285 282 277 275 272 269 267 265
258 258 261 264 263 262 264 263 264 267 269 270 269 271 272 274 273 273 274 273 273 273 274 275 275 275 275 275 275 277 279 282 283 282 282 284 285 283 280 275 272 268 267 265
260 259 260 263 265 267 266 266 266 268 269 269 270 271 273 274 274 273 272 272 272 273 273 275 275 274 275 275 276 278 280 282 282 282 281 281 284 283 279 276 271 268 267 267
261 261 260 262 262 265 266 266 267 268 268 269 271 272 273 273 273 272 271 270 272 272 273 274 274 273 274 274 275 278 279 281 281 281 279 280 280 279 279 278 275 272 270 268
263 262 261 262 263 264 266 267 267 267 270 271 271 271 272 271 272 274 273 271 271 272 273 273 274 274 273 273 274 277 278 279 280 282 282 280 280 277 276 276 275 273 272 270
263 264 264 265 264 265 265 266 266 267 269 269 270 270 270 270 271 272 273 273 273 273 273 273 274 274 273 273 274 275 277 278 278 280 280 279 279 277 276 275 274 273 272 271
263 264 265 265 265 265 266 266 265 268 269 269 269 270 270 270 270 270 271 271 272 273 274 273 272 274 274 274 272 274 277 276 276 277 277 277 277 278 278 277 276 274 271 271
265 265 264 265 265 266 266 266 267 269 271 271 270 270 270 270 271 270 268 268 270 272 273 274 274 274 274 275 275 275 275 275 276 276 277 278 277 277 277 277 276 276 273 272
267 266 265 265 265 265 266 267 270 271 272 272 270 269 269 268 269 270 269 269 270 270 272 273 273 274 274 275 274 274 272 273 274 276 277 277 276 276 275 274 273 273 274 273
265 265 264 263 263 264 265 266 270 271 271 271 269 268 268 267 268 268 267 268 270 271 271 271 271 272 274 273 272 273 273 273 274 275 276 276 275 275 273 272 272 271 272 272
Height
5871 5874 5875 5877 5879 5881 5883 5884 5885 5886 5885 5887 5888 5888 5888 5888 5889 5889 5889 5888 5888 5887 5886 5884 5883 5882 5880 5878 5877 5876 5874 5872 5870 5869 5867 5866 5864 5864 5863 5861 5860 5859 5859 5857
5869 5870 5872 5873 5875 5877 5879 5881 5882 5882 5882 5884 5884 5885 5885 5885 5885 5886 5886 5885 5885 5884 5883 5882 5880 5879 5877 5876 5874 5873 5871 5869 5868 5866 5864 5863 5862 5861 5860 5859 5858 5857 5856 5855
5865 5868 5868 5870 5872 5874 5875 5877 5878 5879 5879 5880 5881 5882 5882 5882 5882 5882 5882 5882 5882 5881 5880 5878 5877 5876 5874 5873 5871 5870 5868 5866 5865 5863 5861 5860 5859 5857 5856 5856 5855 5854 5853 5852
5861 5863 5865 5867 5869 5870 5872 5873 5874 5875 5876 5877 5879 5880 5879 5878 5879 5879 5879 5878 5878 5877 5876 5875 5874 5872 5871 5869 5868 5866 5865 5863 5861 5860 5859 5857 5855 5854 5853 5852 5852 5851 5850 5849
5858 5860 5862 5864 5865 5867 5868 5869 5870 5871 5873 5874 5874 5876 5877 5875 5875 5875 5875 5874 5874 5873 5872 5871 5870 5869 5867 5866 5864 5863 5861 5860 5858 5857 5855 5854 5852 5851 5850 5849 5849 5848 5847 5847
5855 5857 5858 5860 5861 5863 5864 5866 5867 5868 5870 5871 5871 5873 5873 5872 5871 5871 5871 5870 5870 5869 5868 5867 5866 5865 5863 5862 5861 5859 5858 5856 5854 5853 5851 5850 5849 5848 5847 5846 5846 5845 5844 5843
5852 5853 5854 5856 5858 5859 5861 5863 5865 5866 5867 5868 5867 5868 5869 5867 5867 5867 5867 5866 5866 5865 5864 5863 5862 5861 5860 5858 5857 5855 5853 5851 5850 5849 5847 5846 5845 5844 5843 5843 5842 5842 5841 5841
5850 5851 5851 5852 5854 5856 5857 5860 5863 5865 5866 5865 5863 5863 5864 5863 5862 5862 5862 5862 5861 5861 5860 5859 5858 5856 5855 5854 5852 5850 5848 5847 5845 5844 5842 5841 5841 5840 5839 5839 5839 5838 5838 5838
5847 5848 5848 5849 5850 5852 5853 5854 5857 5859 5859 5860 5860 5859 5859 5858 5858 5858 5858 5857 5857 5856 5856 5855 5853 5852 5851 5849 5847 5846 5843 5842 5840 5839 5838 5837 5836 5835 5835 5834 5834 5834 5834 5834
5842 5843 5844 5845 5846 5847 5849 5850 5852 5854 5855 5856 5856 5855 5855 5853 5853 5853 5853 5852 5852 5851 5851 5850 5849 5847 5846 5844 5843 5841 5839 5838 5836 5834 5833 5832 5831 5830 5830 5830 5829 5829 5830 5830
5838 5840 5841 5842 5842 5844 5845 5846 5846 5848 5850 5851 5852 5853 5849 5848 5848 5848 5848 5847 5847 5846 5845 5844 5843 5842 5840 5839 5838 5836 5834 5833 5831 5830 5828 5827 5826 5825 5824 5824 5824 5824 5824 5825
5834 5836 5837 5837 5838 5839 5840 5841 5842 5843 5843 5844 5846 5848 5843 5843 5842 5842 5842 5842 5841 5840 5840 5839 5838 5836 5835 5833 5832 5831 5829 5827 5826 5824 5823 5821 5820 5819 5818 5818 5818 5818 5819 5819
5830 5831 5833 5834 5835 5835 5835 5836 5837 5838 5838 5839 5841 5843 5838 5837 5837 5837 5837 5836 5836 5835 5834 5833 5832 5831 5829 5828 5826 5825 5824 5822 5820 5819 5817 5816 5814 5813 5812 5812 5812 5812 5813 5813
5825 5826 5829 5831 5830 5829 5830 5830 5831 5832 5833 5833 5834 5835 5833 5832 5832 5831 5831 5830 5830 5829 5828 5827 5826 5825 5824 5822 5821 5819 5818 5817 5815 5813 5812 5810 5809 5807 5806 5805 5805 5806 5807 5807
5820 5821 5822 5823 5823 5824 5824 5825 5826 5826 5827 5828 5828 5827 5827 5826 5826 5825 5825 5824 5824 5823 5822 5821 5820 5819 5818 5816 5815 5814 5813 5811 5809 5808 5806 5805 5803 5802 5800 5800 5800 5800 5801 5802
5814 5816 5817 5817 5818 5818 5819 5819 5820 5820 5820 5821 5821 5821 5820 5820 5819 5819 5819 5818 5818 5817 5816 5815 5814 5813 5812 5811 5810 5808 5807 5805 5804 5802 5801 5799 5798 5796 5795 5794 5794 5795 5795 5795
5809 5810 5811 5812 5812 5812 5813 5814 5814 5814 5814 5815 5815 5815 5814 5813 5813 5813 5812 5812 5811 5810 5810 5809 5808 5807 5806 5805 5804 5802 5801 5800 5798 5797 5795 5794 5793 5791 5790 5789 5789 5789 5789 5789
5804 5804 5805 5806 5807 5807 5809 5807 5808 5808 5808 5808 5808 5808 5807 5807 5807 5806 5805 5805 5804 5804 5803 5802 5802 5801 5800 5798 5797 5796 5795 5794 5793 5791 5790 5789 5787 5786 5785 5784 5784 5783 5783 5783
5797 5798 5799 5800 5800 5800 5801 5801 5801 5801 5801 5801 5801 5801 5800 5800 5800 5799 5798 5798 5798 5797 5796 5796 5795 5794 5793 5792 5791 5790 5789 5788 5787 5786 5784 5783 5782 5781 5779 5778 5778 5777 5777 5778
5791 5792 5793 5793 5794 5794 5795 5794 5794 5795 5794 5794 5794 5794 5793 5793 5793 5793 5792 5791 5791 5791 5790 5789 5788 5787 5786 5786 5785 5784 5783 5782 5781 5780 5778 5777 5776 5775 5774 5773 5772 5772 5771 5771
5784 5785 5785 5786 5786 5786 5786 5787 5787 5789 5788 5787 5786 5786 5786 5786 5786 5785 5785 5784 5784 5784 5783 5782 5781 5780 5780 5779 5779 5778 5777 5776 5775 5773 5772 5771 5770 5769 5768 5767 5767 5766 5765 5765
5777 5778 5778 5778 5779 5780 5779 5779 5780 5780 5779 5779 5779 5778 5778 5778 5778 5778 5777 5777 5777 5776 5776 5775 5774 5774 5773 5773 5772 5772 5771 5770 5769 5768 5766 5765 5764 5763 5763 5762 5761 5760 5760 5759
5770 5771 5771 5772 5773 5772 5771 5772 5772 5772 5772 5771 5771 5771 5771 5770 5770 5770 5770 5769 5769 5769 5768 5768 5767 5767 5767 5766 5766 5765 5764 5763 5762 5762 5761 5759 5759 5758 5757 5756 5755 5754 5754 5753
5763 5763 5763 5763 5763 5764 5764 5764 5764 5764 5764 5764 5764 5764 5763 5763 5763 5763 5762 5762 5762 5762 5761 5761 5761 5760 5760 5760 5759 5759 5758 5757 5756 5756 5755 5754 5753 5752 5751 5750 5749 5748 5747 5747
5756 5756 5756 5756 5757 5757 5757 5757 5757 5757 5756 5756 5756 5756 5756 5756 5756 5756 5755 5755 5755 5755 5755 5755 5754 5754 5754 5753 5753 5752 5752 5751 5750 5749 5748 5747 5746 5745 5744 5744 5743 5742 5741 5741
5749 5750 5750 5749 5750 5750 5750 5750 5750 5750 5749 5749 5748 5748 5748 5748 5748 5748 5748 5748 5748 5748 5748 5748 5747 5747 5747 5746 5746 5746 5745 5745 5744 5743 5742 5741 5740 5739 5738 5737 5737 5736 5736 5735